Location: Unspecified
(50.7693°N, 0.0000°E)
Time: 21:07:46
(UTC+00:00)

Transit 4A - Pass Details

Date: 26 June 2019
Orbit: 862 x 982 km, 66.8° (Epoch: 16 July)

Event Time Altitude Azimuth Distance (km) Brightness Sun altitude
Rises 06:06:37 0° 170° (S) 3,617 10.9 18.5°
Reaches altitude 10° 06:09:38 10° 157° (SSE) 2,693 10.5 18.9°
Maximum altitude 06:14:26 23° 107° (ESE) 1,925 10.9 19.7°
Drops below altitude 10° 06:19:19 10° 57° (ENE) 2,741 11.9 20.4°
Sets 06:22:24 0° 44° (NE) 3,697 11.9 20.9°
